Location: Antioch
(38.0049°N, 121.8058°W)
Time: 02:33:51
(UTC+00:00)

Cosmos 1354 Rocket - Pass Details

Date: 20 May 2026
Orbit: 761 x 778 km, 74.0° (Epoch: 9 June)

Event Time Altitude Azimuth Distance (km) Brightness Sun altitude
Rises 05:37:35 0° 342° (NNW) 3,235 8.5 -22.6°
Reaches altitude 10° 05:39:58 10° 343° (NNW) 2,303 7.4 -22.9°
Maximum altitude 05:45:13 86° 72° (ENE) 768 3.9 -23.5°
Enters shadow 05:46:02 64° 154° (SSE) 841 3.9 -23.6°
